Simultaneous Nadir Overpasses (SNOs) Predictions

Prediction of SNOs between GOES-17 and AQUA Satellite Orbit:

Table of predicted SNOs for the next 14.0 days since TLE Epoch: 12/31/2023
Index Date Time (GOES-17) GOES-17 Lat,Lon AQUA Lat,Lon Distance(km) Time Diff (sec)
1 12/31/2023 20:43:55 0.00,-104.66 0.83,-100.90 428.06 80
2 01/01/2024 09:04:22 -0.01,-104.69 0.27,-105.84 131.83 80
3 01/03/2024 08:46:25 -0.02,-104.69 -0.58,-102.11 292.97 80
4 01/03/2024 21:06:59 0.02,-104.65 -0.52,-107.09 277.63 80
5 01/05/2024 20:54:22 0.01,-104.65 0.31,-103.36 147.77 80
6 01/06/2024 09:14:48 -0.01,-104.69 0.77,-108.31 411.35 80
7 01/08/2024 08:56:48 0.02,-104.68 0.01,-104.55 14.53 80
8 01/10/2024 08:41:29 0.02,-104.67 -0.84,-100.82 439.12 80
9 01/10/2024 21:02:03 -0.02,-104.63 -0.29,-105.79 131.87 80
10 01/12/2024 20:49:23 -0.02,-104.62 0.55,-102.05 293.28 80
11 01/13/2024 09:09:50 0.02,-104.66 0.50,-107.00 265.76 80
